Find Starlink 5915

NORAD ID: 55987 Int'l Des: 2023-042 Owner: SPXS Country: US Constellation: starlink operational
LEOCIRCULAR

現在のビュー

3D地球を読み込み中...

About Starlink 5915

Starlink 5915 (NORAD 55987) is a starlink constellation satellite (v1.5) launched Mar 24, 2023 by SPXS of US. It operates in LEO, CIRCULAR orbit with a mass of 305.00 kg.

Starlink 5915について

説明を読み込み中...

次回通過

Passes for default location (London). Set your location on the main map for personalized predictions.

高度履歴

Loading altitude history...

軌道要素

1 55987U 23042B 26165.88174286 -.00000371 00000-0 -39579-5 0 9990
2 55987 42.9967 230.7246 0001280 273.8598 86.2108 15.27574853177737
Epoch: Jun 14, 2026 • Age: 35 hours

現在のステータス

高度 482.7 km
速度 7.63 km/s
衛星直下点 20.22°N, 136.16°W
打ち上げ日 Mar 24, 2023
運用期間 3.2 years
タイプ internet

技術仕様

分類 Payload
質量 305.00 kg
乾燥質量 290.00 kg
総質量 305.00 kg
長さ 0.20 m
直径 2.80 m
スパン 9.00 m
形状 Box + pan
製造者 SPXS
バスタイプ Starlink
フェーズステータス In Orbit
所有者/国 SPXS/US

Most Searched